When you browse on this site, cookies collect data to enhance your experience and personalize the content and advertising you see.
Visit our Privacy Policy to learn more. By continuing to use the site, you agree to this use of cookies and data.
  • en France
  • Liste des pays
  • À 7 jours
  • Température de l'eau
  • Carte satellitaire
  • Carte météo
  • Widgets météo
  • user-avatar
    Se connecter

    Météo par heure à Veliko Tarnovo

    Ce jour, 27 Mai, Lundi

    Heure Température Précipitation Vent Pression Humidité
    00:00 +17°C° 0 mm 2 m/s 739 mmHg 80%
    01:00 +17°C° 0 mm 2 m/s 739 mmHg 81%
    02:00 +16°C° 0 mm 2 m/s 739 mmHg 82%
    03:00 +16°C° 0 mm 2 m/s 739 mmHg 82%
    04:00 +16°C° 0 mm 2 m/s 739 mmHg 81%
    05:00 +16°C° 0 mm 2 m/s 739 mmHg 81%
    06:00 +18°C° 0 mm 2 m/s 739 mmHg 76%
    07:00 +20°C° 0 mm 2 m/s 739 mmHg 70%
    08:00 +22°C° 0 mm 3 m/s 739 mmHg 64%
    09:00 +25°C° 0 mm 3 m/s 739 mmHg 59%
    10:00 +26°C° 0 mm 4 m/s 739 mmHg 55%
    11:00 +27°C° 0 mm 4 m/s 739 mmHg 50%
    12:00 +28°C° 0 mm 4 m/s 739 mmHg 50%
    13:00 +28°C° 0 mm 4 m/s 738 mmHg 50%
    14:00 +29°C° 0 mm 5 m/s 738 mmHg 50%
    15:00 +28°C° 0 mm 4 m/s 738 mmHg 52%
    16:00 +28°C° 0 mm 4 m/s 738 mmHg 55%
    17:00 +28°C° 0 mm 3 m/s 738 mmHg 57%
    18:00 +26°C° 0 mm 3 m/s 737 mmHg 61%
    19:00 +24°C° 0 mm 3 m/s 737 mmHg 64%
    20:00 +21°C° 0 mm 3 m/s 737 mmHg 68%
    21:00 +20°C° 0 mm 4 m/s 737 mmHg 67%
    22:00 +20°C° 0 mm 4 m/s 737 mmHg 66%
    23:00 +20°C° 0 mm 4 m/s 737 mmHg 65%

    Demain, 28 Mai, Mardi

    Heure Température Précipitation Vent Pression Humidité
    00:00 +19°C° 0.3 mm 4 m/s 737 mmHg 69%
    01:00 +18°C° 0.3 mm 3 m/s 737 mmHg 73%
    02:00 +16°C° 0.3 mm 3 m/s 737 mmHg 78%
    03:00 +16°C° 0.1 mm 3 m/s 736 mmHg 77%
    04:00 +16°C° 0.1 mm 3 m/s 736 mmHg 76%
    05:00 +16°C° 0.1 mm 3 m/s 736 mmHg 74%
    06:00 +18°C° 0.1 mm 4 m/s 736 mmHg 71%
    07:00 +20°C° 0.1 mm 4 m/s 736 mmHg 67%
    08:00 +22°C° 0.1 mm 4 m/s 736 mmHg 63%
    09:00 +25°C° 0 mm 5 m/s 736 mmHg 56%
    10:00 +27°C° 0 mm 5 m/s 736 mmHg 50%
    11:00 +28°C° 0 mm 6 m/s 735 mmHg 44%
    12:00 +29°C° 0 mm 6 m/s 735 mmHg 44%
    13:00 +30°C° 0 mm 6 m/s 735 mmHg 44%
    14:00 +30°C° 0 mm 6 m/s 734 mmHg 45%
    15:00 +29°C° 0 mm 6 m/s 734 mmHg 47%
    16:00 +29°C° 0 mm 6 m/s 733 mmHg 49%
    17:00 +28°C° 0 mm 5 m/s 733 mmHg 51%
    18:00 +26°C° 0 mm 5 m/s 733 mmHg 53%
    19:00 +23°C° 0 mm 5 m/s 733 mmHg 55%
    20:00 +21°C° 0 mm 5 m/s 733 mmHg 57%
    21:00 +20°C° 0 mm 5 m/s 733 mmHg 61%
    22:00 +19°C° 0 mm 4 m/s 733 mmHg 65%
    23:00 +18°C° 0 mm 3 m/s 733 mmHg 69%

    Après-demain, 29 Mai, Mercredi

    Heure Température Précipitation Vent Pression Humidité
    00:00 +18°C° 0 mm 3 m/s 733 mmHg 70%
    01:00 +17°C° 0 mm 2 m/s 734 mmHg 71%
    02:00 +17°C° 0 mm 2 m/s 734 mmHg 72%
    03:00 +17°C° 0 mm 2 m/s 734 mmHg 74%
    04:00 +16°C° 0 mm 1 m/s 734 mmHg 76%
    05:00 +16°C° 0 mm 1 m/s 734 mmHg 78%
    06:00 +19°C° 0 mm 1 m/s 734 mmHg 74%
    07:00 +22°C° 0 mm 1 m/s 735 mmHg 69%
    08:00 +22°C° 0 mm 0 m/s 735 mmHg 65%
    09:00 +25°C° 0 mm 1 m/s 735 mmHg 60%
    10:00 +26°C° 0 mm 1 m/s 735 mmHg 56%
    11:00 +28°C° 0 mm 1 m/s 735 mmHg 51%
    12:00 +28°C° 0.1 mm 1 m/s 735 mmHg 50%
    13:00 +28°C° 0.1 mm 1 m/s 735 mmHg 49%
    14:00 +27°C° 0.1 mm 0 m/s 735 mmHg 48%
    15:00 +27°C° 0 mm 0 m/s 735 mmHg 49%
    16:00 +27°C° 0 mm 0 m/s 735 mmHg 50%
    17:00 +29°C° 0 mm 1 m/s 735 mmHg 51%
    18:00 +25°C° 0.1 mm 0 m/s 735 mmHg 58%
    19:00 +22°C° 0.1 mm 0 m/s 735 mmHg 65%
    20:00 +20°C° 0.1 mm 0 m/s 735 mmHg 72%
    21:00 +20°C° 0.2 mm 0 m/s 735 mmHg 75%
    22:00 +21°C° 0.2 mm 1 m/s 736 mmHg 79%
    23:00 +20°C° 0.2 mm 1 m/s 736 mmHg 82%

    30 Mai, Jeudi

    Heure Température Précipitation Vent Pression Humidité
    00:00 +19°C° 0.1 mm 1 m/s 736 mmHg 85%
    01:00 +19°C° 0.1 mm 1 m/s 736 mmHg 88%
    02:00 +18°C° 0.1 mm 1 m/s 736 mmHg 91%
    03:00 +18°C° 0 mm 1 m/s 736 mmHg 91%
    04:00 +18°C° 0 mm 1 m/s 736 mmHg 92%
    05:00 +16°C° 0 mm 1 m/s 736 mmHg 92%
    06:00 +19°C° 0 mm 1 m/s 736 mmHg 88%
    07:00 +19°C° 0 mm 2 m/s 737 mmHg 83%
    08:00 +20°C° 0 mm 2 m/s 737 mmHg 79%
    09:00 +21°C° 0 mm 2 m/s 737 mmHg 74%
    10:00 +22°C° 0 mm 3 m/s 737 mmHg 69%
    11:00 +25°C° 0 mm 4 m/s 737 mmHg 65%
    12:00 +25°C° 0.1 mm 3 m/s 737 mmHg 64%
    13:00 +25°C° 0.1 mm 3 m/s 736 mmHg 63%
    14:00 +26°C° 0.1 mm 3 m/s 736 mmHg 62%
    15:00 +25°C° 0.1 mm 3 m/s 736 mmHg 65%
    16:00 +25°C° 0.1 mm 3 m/s 736 mmHg 68%
    17:00 +24°C° 0.1 mm 2 m/s 736 mmHg 71%
    18:00 +23°C° 0.6 mm 2 m/s 736 mmHg 77%
    19:00 +20°C° 0.6 mm 2 m/s 736 mmHg 83%
    20:00 +18°C° 0.6 mm 2 m/s 736 mmHg 89%
    21:00 +17°C° 0.2 mm 2 m/s 736 mmHg 91%
    22:00 +17°C° 0.2 mm 2 m/s 736 mmHg 94%
    23:00 +16°C° 0.2 mm 2 m/s 736 mmHg 96%

    31 Mai, Vendredi

    Heure Température Précipitation Vent Pression Humidité
    00:00 +16°C° 0.1 mm 2 m/s 736 mmHg 96%
    01:00 +16°C° 0.1 mm 2 m/s 736 mmHg 95%
    02:00 +16°C° 0.1 mm 3 m/s 736 mmHg 95%
    03:00 +14°C° 0 mm 3 m/s 736 mmHg 94%
    04:00 +14°C° 0 mm 3 m/s 736 mmHg 93%
    05:00 +13°C° 0 mm 3 m/s 736 mmHg 93%
    06:00 +14°C° 0 mm 3 m/s 736 mmHg 89%
    07:00 +15°C° 0 mm 4 m/s 736 mmHg 85%
    08:00 +17°C° 0 mm 4 m/s 736 mmHg 81%
    09:00 +18°C° 0 mm 4 m/s 736 mmHg 76%
    10:00 +19°C° 0 mm 4 m/s 736 mmHg 72%
    11:00 +20°C° 0 mm 4 m/s 736 mmHg 68%
    12:00 +21°C° 0 mm 4 m/s 735 mmHg 68%
    13:00 +21°C° 0 mm 4 m/s 735 mmHg 68%
    14:00 +21°C° 0 mm 4 m/s 735 mmHg 68%
    15:00 +21°C° 0 mm 4 m/s 735 mmHg 70%
    16:00 +21°C° 0 mm 4 m/s 735 mmHg 71%
    17:00 +20°C° 0 mm 4 m/s 734 mmHg 73%
    18:00 +19°C° 0.2 mm 3 m/s 734 mmHg 78%
    19:00 +18°C° 0.2 mm 3 m/s 734 mmHg 84%
    20:00 +17°C° 0.2 mm 2 m/s 734 mmHg 89%
    21:00 +16°C° 0.1 mm 2 m/s 734 mmHg 90%
    22:00 +16°C° 0.1 mm 2 m/s 734 mmHg 90%
    23:00 +15°C° 0.1 mm 2 m/s 734 mmHg 90%

    1 Juin, Samedi

    Heure Température Précipitation Vent Pression Humidité
    00:00 +15°C° 0 mm 2 m/s 734 mmHg 89%
    01:00 +15°C° 0 mm 2 m/s 734 mmHg 88%
    02:00 +14°C° 0 mm 2 m/s 734 mmHg 88%
    03:00 +14°C° 0 mm 2 m/s 734 mmHg 88%
    04:00 +14°C° 0 mm 2 m/s 734 mmHg 87%
    05:00 +13°C° 0 mm 3 m/s 734 mmHg 87%
    06:00 +13°C° 0.2 mm 3 m/s 734 mmHg 89%
    07:00 +13°C° 0.2 mm 4 m/s 735 mmHg 91%
    08:00 +14°C° 0.2 mm 4 m/s 735 mmHg 93%
    09:00 +13°C° 0.3 mm 5 m/s 735 mmHg 91%
    10:00 +13°C° 0.3 mm 5 m/s 735 mmHg 89%
    11:00 +12°C° 0.3 mm 5 m/s 735 mmHg 88%
    12:00 +13°C° 0 mm 5 m/s 735 mmHg 85%
    13:00 +13°C° 0 mm 5 m/s 735 mmHg 82%
    14:00 +14°C° 0 mm 6 m/s 736 mmHg 79%
    15:00 +13°C° 0.1 mm 5 m/s 736 mmHg 80%
    16:00 +13°C° 0.1 mm 5 m/s 736 mmHg 80%
    17:00 +13°C° 0.1 mm 4 m/s 736 mmHg 81%
    18:00 +12°C° 0 mm 4 m/s 736 mmHg 82%
    19:00 +12°C° 0 mm 4 m/s 737 mmHg 82%
    20:00 +12°C° 0 mm 4 m/s 737 mmHg 82%
    21:00 +11°C° 0 mm 4 m/s 738 mmHg 82%
    22:00 +11°C° 0 mm 3 m/s 738 mmHg 83%
    23:00 +10°C° 0 mm 3 m/s 738 mmHg 84%
    Voir plus